Date String (YYYY-MM-DD hh:mm:ss) UTC,Instrument flags,absolute air pressure of the measurement (hPa),sample flow rate (lpm),inlet stack bypass flow (lpm),air temperature of the measurement (°C),ambient temperature measured by the external sensor (°C),aerosol sample conditioner tube jacket temperature (°C),OPC LED temperature (°C),internal box temperature (°C),relative humidity of the measurement (%),span deviation,mass concentration of particles derived from Lorenz-Mie calculation of OPC scattering (μg/m³),mass concentration of particles derived from Lorenz-Mie calculation of OPC scattering (μg/m³),mass concentration of particles derived from Lorenz-Mie calculation of OPC scattering (μg/m³)
DateTimeUTC,F1_M11,P_M11,Q1_M11,Q2_M11,T1_M11,T2_M11,T3_M11,T4_M11,T5_M11,U1_M11,ZSPAN_M11,X0_M11,X2_M11,X1_M11
2023-08-12 22:00:00,SystemResetWarning,0832.2,4.99,000.00,029.1,027.9,000.0,037.5,030.9,32.0,0000.0,0006.39,0003.85,0003.32
2023-08-12 22:01:00,SystemResetWarning,0832.2,4.99,000.00,029.1,027.4,000.0,037.4,030.8,31.4,0000.0,0006.67,0003.97,0003.41
2023-08-12 22:02:00,SystemResetWarning,0832.2,5.00,000.00,029.0,025.6,000.0,037.3,030.4,31.8,0000.0,0006.78,0004.03,0003.46
2023-08-12 22:03:00,SystemResetWarning,0832.2,5.01,000.00,028.9,024.7,000.0,037.2,030.2,32.1,0000.0,0006.91,0004.05,0003.49
2023-08-12 22:04:00,SystemResetWarning,0832.2,5.01,000.00,028.9,024.7,000.0,037.2,030.0,32.2,0000.0,0007.01,0004.07,0003.51
2023-08-12 22:05:00,SystemResetWarning,0832.2,5.00,000.00,028.8,025.1,000.0,037.2,030.0,32.3,0000.0,0007.20,0004.08,0003.51
2023-08-12 22:06:00,SystemResetWarning,0832.2,5.00,000.00,028.7,025.6,000.0,037.2,030.2,31.8,0000.0,0007.42,0004.04,0003.48
2023-08-12 22:07:00,SystemResetWarning,0832.2,5.00,000.00,028.7,026.0,000.0,037.3,030.3,31.5,0000.0,0007.41,0003.99,0003.45
2023-08-12 22:08:00,SystemResetWarning,0832.2,5.00,000.00,028.8,026.4,000.0,037.3,030.4,31.5,0000.0,0007.72,0003.90,0003.40
2023-08-12 22:09:00,SystemResetWarning,0832.2,5.00,000.00,028.8,026.7,000.0,037.3,030.5,32.0,0000.0,0007.76,0003.83,0003.36
2023-08-12 22:10:00,SystemResetWarning,0832.2,5.00,000.00,028.8,027.0,000.0,037.3,030.6,31.2,0000.0,0008.25,0003.80,0003.31
2023-08-12 22:11:00,SystemResetWarning,0832.2,5.00,000.00,028.9,027.2,000.0,037.3,030.6,31.2,0000.0,0008.20,0003.69,0003.25
2023-08-12 22:12:00,SystemResetWarning,0832.2,5.00,000.00,028.9,027.5,000.0,037.3,030.7,31.4,0000.0,0008.11,0003.62,0003.21
2023-08-12 22:13:00,SystemResetWarning,0832.1,5.00,000.00,028.9,027.6,000.0,037.4,030.7,30.9,0000.0,0008.15,0003.62,0003.19
2023-08-12 22:14:00,SystemResetWarning,0832.1,5.00,000.00,029.0,027.8,000.0,037.4,030.8,30.6,0000.0,0008.12,0003.64,0003.19
2023-08-12 22:15:00,SystemResetWarning,0832.2,5.00,000.00,029.0,027.9,000.0,037.4,030.9,30.5,0000.0,0008.23,0003.65,0003.19
2023-08-12 22:16:00,SystemResetWarning,0832.1,5.00,000.00,029.1,027.9,000.0,037.4,030.9,30.7,0000.0,0008.27,0003.70,0003.20
2023-08-12 22:17:00,SystemResetWarning,0832.0,4.99,000.00,029.1,026.7,000.0,037.3,030.5,30.6,0000.0,0008.16,0003.73,0003.23
2023-08-12 22:18:00,SystemResetWarning,0832.0,5.01,000.00,029.0,025.1,000.0,037.2,030.2,30.4,0000.0,0008.28,0003.80,0003.26
2023-08-12 22:19:00,SystemResetWarning,0832.0,5.01,000.00,028.9,024.7,000.0,037.1,030.0,30.6,0000.0,0007.97,0003.86,0003.29
2023-08-12 22:20:00,SystemResetWarning,0832.0,4.99,000.00,028.8,025.0,000.0,037.2,030.0,29.8,0000.0,0008.11,0003.90,0003.31
2023-08-12 22:21:00,SystemResetWarning,0832.0,4.99,000.00,028.7,025.4,000.0,037.2,030.1,29.3,0000.0,0007.54,0003.91,0003.33
2023-08-12 22:22:00,SystemResetWarning,0832.0,5.00,000.00,028.7,025.9,000.0,037.2,030.2,28.8,0000.0,0007.68,0003.94,0003.36
2023-08-12 22:23:00,SystemResetWarning,0832.0,5.01,000.00,028.8,026.3,000.0,037.3,030.4,28.8,0000.0,0007.69,0003.96,0003.37
2023-08-12 22:24:00,SystemResetWarning,0832.0,5.01,000.00,028.8,026.7,000.0,037.3,030.5,28.0,0000.0,0007.63,0003.93,0003.38
2023-08-12 22:25:00,SystemResetWarning,0832.0,5.00,000.00,028.8,027.0,000.0,037.3,030.6,27.4,0000.0,0007.72,0003.97,0003.40
2023-08-12 22:26:00,SystemResetWarning,0831.9,5.00,000.00,028.9,027.3,000.0,037.3,030.6,27.3,0000.0,0007.61,0003.96,0003.42
2023-08-12 22:27:00,SystemResetWarning,0832.0,4.99,000.00,028.9,027.5,000.0,037.3,030.7,27.0,0000.0,0007.48,0003.93,0003.41
2023-08-12 22:28:00,SystemResetWarning,0831.9,5.00,000.00,029.0,027.7,000.0,037.4,030.8,27.8,0000.0,0007.42,0003.91,0003.41
2023-08-12 22:29:00,SystemResetWarning,0831.9,5.00,000.00,029.0,027.9,000.0,037.4,030.8,27.9,0000.0,0007.32,0003.87,0003.39
2023-08-12 22:30:00,SystemResetWarning,0831.9,4.99,000.00,029.1,027.2,000.0,037.3,030.7,27.9,0000.0,0007.18,0003.83,0003.38
2023-08-12 22:31:00,SystemResetWarning,0831.9,5.00,000.00,029.0,025.5,000.0,037.2,030.4,28.4,0000.0,0006.98,0003.81,0003.36
2023-08-12 22:32:00,SystemResetWarning,0831.9,5.01,000.00,028.9,024.8,000.0,037.1,030.1,27.7,0000.0,0006.74,0003.81,0003.35
2023-08-12 22:33:00,SystemResetWarning,0832.1,5.00,000.00,028.8,025.1,000.0,037.1,030.1,26.0,0000.0,0006.19,0003.78,0003.34
2023-08-12 22:34:00,SystemResetWarning,0832.2,5.00,000.00,028.8,025.4,000.0,037.2,030.1,25.1,0000.0,0006.16,0003.80,0003.33
2023-08-12 22:35:00,SystemResetWarning,0832.0,5.00,000.00,028.8,025.9,000.0,037.2,030.3,24.9,0000.0,0006.38,0003.82,0003.33
2023-08-12 22:36:00,SystemResetWarning,0831.8,5.00,000.00,028.8,026.3,000.0,037.2,030.4,24.7,0000.0,0006.26,0003.81,0003.32
2023-08-12 22:37:00,SystemResetWarning,0831.7,5.00,000.00,028.8,026.7,000.0,037.3,030.5,24.5,0000.0,0006.19,0003.80,0003.31
2023-08-12 22:38:00,SystemResetWarning,0831.7,5.01,000.00,028.8,027.0,000.0,037.3,030.6,24.4,0000.0,0006.21,0003.79,0003.31
2023-08-12 22:39:00,SystemResetWarning,0831.7,5.00,000.00,028.9,027.3,000.0,037.3,030.7,24.2,0000.0,0006.33,0003.82,0003.32
2023-08-12 22:40:00,SystemResetWarning,0831.7,5.00,000.00,028.9,027.5,000.0,037.3,030.7,24.6,0000.0,0006.31,0003.84,0003.33
2023-08-12 22:41:00,SystemResetWarning,0831.7,5.00,000.00,029.0,027.7,000.0,037.4,030.8,24.3,0000.0,0006.72,0003.89,0003.34
2023-08-12 22:42:00,SystemResetWarning,0831.7,5.01,000.00,029.0,027.9,000.0,037.4,030.9,24.3,0000.0,0007.44,0003.94,0003.37
2023-08-12 22:43:00,SystemResetWarning,0831.7,5.00,000.00,029.1,027.7,000.0,037.4,030.8,24.4,0000.0,0007.56,0003.98,0003.40
2023-08-12 22:44:00,SystemResetWarning,0831.7,4.98,000.00,029.1,026.2,000.0,037.3,030.5,24.8,0000.0,0007.73,0004.04,0003.42
2023-08-12 22:45:00,SystemResetWarning,0831.6,5.03,000.00,029.0,025.8,000.0,037.2,030.4,25.2,0000.0,0007.98,0004.08,0003.45
2023-08-12 22:46:00,SystemResetWarning,0831.6,4.99,000.00,028.9,026.0,000.0,037.2,030.3,25.6,0000.0,0008.08,0004.12,0003.48
2023-08-12 22:47:00,SystemResetWarning,0831.6,4.99,000.00,028.9,026.3,000.0,037.3,030.4,25.7,0000.0,0008.07,0004.13,0003.51
2023-08-12 22:48:00,SystemResetWarning,0831.5,5.00,000.00,028.9,026.6,000.0,037.3,030.5,25.3,0000.0,0008.60,0004.17,0003.55
2023-08-12 22:49:00,SystemResetWarning,0831.5,5.01,000.00,028.9,026.9,000.0,037.3,030.6,25.1,0000.0,0008.81,0004.25,0003.60
2023-08-12 22:50:00,SystemResetWarning,0831.5,5.00,000.00,029.0,027.2,000.0,037.4,030.7,25.3,0000.0,0008.97,0004.26,0003.63
2023-08-12 22:51:00,SystemResetWarning,0831.5,5.00,000.00,029.0,027.5,000.0,037.4,030.8,25.2,0000.0,0008.91,0004.26,0003.66
2023-08-12 22:52:00,SystemResetWarning,0831.5,4.98,000.00,029.1,027.7,000.0,037.4,030.9,24.8,0000.0,0009.08,0004.29,0003.69
2023-08-12 22:53:00,SystemResetWarning,0831.5,5.00,000.00,029.1,027.6,000.0,037.4,030.9,24.8,0000.0,0009.16,0004.33,0003.72
2023-08-12 22:54:00,SystemResetWarning,0831.5,5.00,000.00,029.1,026.2,000.0,037.3,030.6,25.3,0000.0,0009.09,0004.33,0003.74
2023-08-12 22:55:00,SystemResetWarning,0831.4,5.01,000.00,029.0,025.7,000.0,037.2,030.4,25.5,0000.0,0008.96,0004.29,0003.75
2023-08-12 22:56:00,SystemResetWarning,0831.5,5.01,000.00,029.0,025.9,000.0,037.2,030.4,25.2,0000.0,0008.80,0004.31,0003.76
2023-08-12 22:57:00,SystemResetWarning,0831.4,5.01,000.00,028.9,026.2,000.0,037.3,030.4,25.3,0000.0,0008.81,0004.35,0003.76
2023-08-12 22:58:00,SystemResetWarning,0831.5,4.99,000.00,029.0,026.5,000.0,037.3,030.5,25.3,0000.0,0008.80,0004.35,0003.76
2023-08-12 22:59:00,SystemResetWarning,0831.4,5.00,000.00,029.0,026.9,000.0,037.4,030.6,25.8,0000.0,0008.48,0004.35,0003.76
